Location: Unspecified
(50.7693°N, 0.0000°E)
Time: 18:43:20
(UTC+00:00)

Altair - All Passes

Search period start: 16 June 2019 00:00
Search period end: 26 June 2019 00:00
Orbit: 1501 x 1683 km, 47.2° (Epoch: 16 June)

Date Brightness Start Highest point End Pass type
(mag) Time Alt. Az. Time Alt. Az. Time Alt. Az.
16 Jun - 01:32:26 10° W 01:42:19 68° SSW 01:52:22 10° ESE visible
16 Jun - 03:37:10 10° W 03:46:13 40° SW 03:55:20 10° SSE daylight
16 Jun - 05:44:48 10° W 05:48:47 13° WSW 05:52:46 10° SSW daylight
16 Jun - 19:01:58 10° SSE 19:06:12 14° ESE 19:10:29 10° E daylight
16 Jun - 20:59:57 10° SSW 21:08:43 41° SE 21:17:46 10° E visible
16 Jun - 23:02:55 10° WSW 23:12:37 69° SSE 23:22:38 10° E visible
17 Jun - 01:07:16 10° W 01:17:08 69° SSW 01:27:12 10° ESE visible
17 Jun - 03:11:57 10° W 03:21:07 42° SW 03:30:22 10° SSE daylight
17 Jun - 05:18:57 10° W 05:23:47 15° SW 05:28:38 10° SSW daylight
17 Jun - 18:38:01 10° SE 18:41:14 12° ESE 18:44:30 10° ESE daylight
17 Jun - 20:35:02 10° SSW 20:43:38 39° SE 20:52:32 10° E daylight
17 Jun - 22:37:48 10° WSW 22:47:26 68° SSE 22:57:25 10° E visible
18 Jun - 00:42:06 10° W 00:51:57 71° S 01:02:02 10° ESE visible
18 Jun - 02:46:45 10° W 02:56:00 44° SSW 03:05:22 10° SSE visible
18 Jun - 04:53:18 10° W 04:58:48 16° SW 05:04:19 10° SSW daylight
18 Jun - 18:14:43 10° SE 18:16:17 10° ESE 18:17:51 10° ESE daylight
18 Jun - 20:10:09 10° SSW 20:18:34 37° SE 20:27:16 10° E daylight
18 Jun - 22:12:42 10° WSW 22:22:16 66° SSE 22:32:13 10° E visible
19 Jun - 00:16:56 10° W 00:26:46 72° S 00:36:51 10° ESE visible
19 Jun - 02:21:33 10° W 02:30:53 46° SSW 02:40:21 10° SE visible
19 Jun - 04:27:44 10° W 04:33:47 18° SW 04:39:51 10° SSW daylight
19 Jun - 19:45:17 10° SSW 19:53:30 34° SE 20:02:00 10° E daylight
19 Jun - 21:47:36 10° WSW 21:57:07 65° SSE 22:07:00 10° E visible
19 Jun - 23:51:47 10° W 00:01:35 72° S 00:11:40 10° ESE visible
20 Jun - 01:56:21 10° W 02:05:46 49° SSW 02:15:19 10° SE visible
20 Jun - 04:02:15 10° W 04:08:46 20° SW 04:15:19 10° S daylight
20 Jun - 19:20:26 10° SSW 19:28:27 32° SE 19:36:43 10° E daylight
20 Jun - 21:22:31 10° WSW 21:31:58 63° SSE 21:41:47 10° E visible
20 Jun - 23:26:37 10° W 23:36:24 73° S 23:46:28 10° ESE visible
21 Jun - 01:31:10 10° W 01:40:37 51° SSW 01:50:16 10° SE visible
21 Jun - 03:36:49 10° W 03:43:44 21° SW 03:50:42 10° S daylight
21 Jun - 18:55:38 10° SSW 19:03:25 30° SE 19:11:25 10° E daylight
21 Jun - 20:57:27 10° SW 21:06:49 61° SSE 21:16:34 10° E visible
21 Jun - 23:01:28 10° W 23:11:13 73° S 23:21:16 10° ESE visible
22 Jun - 01:06:00 10° W 01:15:30 53° SSW 01:25:12 10° SE visible
22 Jun - 03:11:26 10° W 03:18:41 23° SW 03:26:03 10° S daylight
22 Jun - 18:30:52 10° S 18:38:23 28° SE 18:46:07 10° E daylight
22 Jun - 20:32:24 10° SW 20:41:41 59° SSE 20:51:21 10° E daylight
22 Jun - 22:36:20 10° W 22:46:02 74° S 22:56:04 10° E visible
23 Jun - 00:40:49 10° W 00:50:21 55° SSW 01:00:07 10° SE visible
23 Jun - 02:46:05 10° W 02:53:39 25° SW 03:01:18 10° S visible
23 Jun - 18:06:08 10° S 18:13:22 26° SE 18:20:47 10° E daylight
23 Jun - 20:07:21 10° SW 20:16:33 56° SSE 20:26:09 10° E daylight
23 Jun - 22:11:12 10° W 22:20:51 74° S 22:30:52 10° E visible
24 Jun - 00:15:39 10° W 00:25:12 57° SSW 00:35:01 10° SE visible
24 Jun - 02:20:47 10° W 02:28:36 27° SW 02:36:33 10° S visible
24 Jun - 17:41:26 10° S 17:48:21 24° SE 17:55:25 10° E daylight
24 Jun - 19:42:19 10° SW 19:51:26 54° SSE 20:00:56 10° E daylight
24 Jun - 21:46:04 10° W 21:55:40 74° S 22:05:40 10° E visible
24 Jun - 23:50:29 10° W 00:00:03 59° SSW 00:09:54 10° SE visible
25 Jun - 01:55:29 10° W 02:03:32 29° SW 02:11:44 10° S visible
25 Jun - 17:16:48 10° S 17:23:20 22° SE 17:30:01 10° E daylight
25 Jun - 19:17:18 10° SW 19:26:19 52° SSE 19:35:43 10° E daylight
25 Jun - 21:20:56 10° WSW 21:30:30 73° S 21:40:27 10° E visible
25 Jun - 23:25:20 10° W 23:34:54 61° SSW 23:44:46 10° SE visible
